• In Netherlands
  • List of Countries
  • For 7 days
  • Water Temperature
  • Satellite Maps
  • Weather Map
  • Weather Widgets
  • user-avatar
    Login

    Hourly Weather Kaprun

    Today, 23 February, Thursday

    Time Temperature Precipitation Wind Pressure Humidity
    00:00 -6°C° 0 mm 2 mps 591 mmHg 85%
    01:00 -5°C° 0 mm 2 mps 591 mmHg 85%
    02:00 -6°C° 0 mm 2 mps 591 mmHg 83%
    03:00 -6°C° 0 mm 2 mps 590 mmHg 82%
    04:00 -7°C° 0 mm 2 mps 590 mmHg 81%
    05:00 -7°C° 0 mm 2 mps 590 mmHg 80%
    06:00 -8°C° 0 mm 2 mps 590 mmHg 80%
    07:00 -8°C° 0 mm 2 mps 589 mmHg 80%
    08:00 -6°C° 0 mm 2 mps 590 mmHg 84%
    09:00 -4°C° 0 mm 2 mps 591 mmHg 88%
    10:00 -1°C° 0 mm 2 mps 592 mmHg 92%
    11:00 -1°C° 0 mm 2 mps 592 mmHg 92%
    12:00 -1°C° 0 mm 2 mps 592 mmHg 93%
    13:00 0°C° 0 mm 3 mps 591 mmHg 93%
    14:00 -1°C° 0 mm 3 mps 590 mmHg 94%
    15:00 -1°C° 0 mm 3 mps 590 mmHg 95%
    16:00 -1°C° 0 mm 3 mps 589 mmHg 96%
    17:00 -2°C° 0 mm 3 mps 589 mmHg 95%
    18:00 -4°C° 0 mm 3 mps 588 mmHg 95%
    19:00 -5°C° 0 mm 3 mps 588 mmHg 94%
    20:00 -6°C° 0 mm 3 mps 587 mmHg 94%
    21:00 -6°C° 0 mm 3 mps 587 mmHg 94%
    22:00 -6°C° 0 mm 3 mps 587 mmHg 94%
    23:00 -7°C° 0 mm 3 mps 587 mmHg 94%

    Tomorrow, 24 February, Friday

    Time Temperature Precipitation Wind Pressure Humidity
    00:00 -7°C° 0 mm 3 mps 587 mmHg 94%
    01:00 -7°C° 0 mm 3 mps 586 mmHg 94%
    02:00 -6°C° 0.2 mm 2 mps 586 mmHg 95%
    03:00 -6°C° 0.2 mm 2 mps 586 mmHg 95%
    04:00 -6°C° 0.2 mm 2 mps 586 mmHg 96%
    05:00 -4°C° 0.6 mm 1 mps 587 mmHg 96%
    06:00 -4°C° 0.6 mm 1 mps 587 mmHg 97%
    07:00 -4°C° 0.6 mm 1 mps 587 mmHg 97%
    08:00 -6°C° 0.8 mm 2 mps 587 mmHg 97%
    09:00 -6°C° 0.8 mm 2 mps 588 mmHg 97%
    10:00 -6°C° 0.8 mm 2 mps 588 mmHg 96%
    11:00 -6°C° 0.8 mm 2 mps 588 mmHg 96%
    12:00 -6°C° 0.8 mm 2 mps 588 mmHg 96%
    13:00 -6°C° 0.8 mm 2 mps 588 mmHg 95%
    14:00 -6°C° 0.7 mm 2 mps 588 mmHg 96%
    15:00 -8°C° 0.7 mm 3 mps 588 mmHg 96%
    16:00 -8°C° 0.7 mm 3 mps 588 mmHg 96%
    17:00 -8°C° 0.7 mm 3 mps 589 mmHg 96%
    18:00 -9°C° 0.7 mm 3 mps 589 mmHg 97%
    19:00 -9°C° 0.7 mm 3 mps 589 mmHg 97%
    20:00 -10°C° 0.7 mm 3 mps 590 mmHg 97%
    21:00 -10°C° 0.7 mm 3 mps 590 mmHg 97%
    22:00 -10°C° 0.7 mm 3 mps 591 mmHg 97%
    23:00 -10°C° 0.3 mm 3 mps 591 mmHg 97%

    Day after tomorrow, 25 February, Saturday

    Time Temperature Precipitation Wind Pressure Humidity
    00:00 -12°C° 0.3 mm 3 mps 591 mmHg 97%
    01:00 -12°C° 0.3 mm 3 mps 592 mmHg 97%
    02:00 -12°C° 0.1 mm 2 mps 592 mmHg 97%
    03:00 -12°C° 0.1 mm 2 mps 592 mmHg 97%
    04:00 -13°C° 0.1 mm 2 mps 592 mmHg 97%
    05:00 -13°C° 0.1 mm 2 mps 592 mmHg 97%
    06:00 -14°C° 0.1 mm 2 mps 592 mmHg 97%
    07:00 -14°C° 0.1 mm 2 mps 593 mmHg 96%
    08:00 -13°C° 0 mm 2 mps 593 mmHg 94%
    09:00 -10°C° 0 mm 2 mps 594 mmHg 91%
    10:00 -9°C° 0 mm 2 mps 595 mmHg 89%
    11:00 -8°C° 0 mm 2 mps 596 mmHg 87%
    12:00 -6°C° 0 mm 1 mps 596 mmHg 85%
    13:00 -4°C° 0 mm 1 mps 597 mmHg 83%
    14:00 -4°C° 0 mm 1 mps 596 mmHg 86%
    15:00 -4°C° 0 mm 1 mps 596 mmHg 88%
    16:00 -4°C° 0 mm 1 mps 596 mmHg 90%
    17:00 -9°C° 0 mm 1 mps 594 mmHg 90%
    18:00 -13°C° 0 mm 1 mps 592 mmHg 89%
    19:00 -17°C° 0 mm 1 mps 590 mmHg 88%
    20:00 -16°C° 0 mm 1 mps 591 mmHg 84%
    21:00 -15°C° 0 mm 1 mps 591 mmHg 79%
    22:00 -14°C° 0 mm 1 mps 592 mmHg 74%
    23:00 -13°C° 0 mm 1 mps 592 mmHg 75%

    26 February, Sunday

    Time Temperature Precipitation Wind Pressure Humidity
    00:00 -12°C° 0 mm 1 mps 593 mmHg 76%
    01:00 -13°C° 0 mm 2 mps 593 mmHg 77%
    02:00 -12°C° 0 mm 2 mps 593 mmHg 76%
    03:00 -10°C° 0 mm 2 mps 593 mmHg 75%
    04:00 -10°C° 0 mm 2 mps 593 mmHg 74%
    05:00 -9°C° 0 mm 1 mps 593 mmHg 74%
    06:00 -10°C° 0 mm 1 mps 592 mmHg 74%
    07:00 -11°C° 0 mm 1 mps 592 mmHg 74%
    08:00 -7°C° 0 mm 1 mps 593 mmHg 80%
    09:00 -3°C° 0 mm 1 mps 595 mmHg 85%
    10:00 0°C° 0 mm 1 mps 596 mmHg 90%
    11:00 0°C° 0 mm 1 mps 596 mmHg 91%
    12:00 0°C° 0 mm 0 mps 596 mmHg 91%
    13:00 0°C° 0 mm 0 mps 596 mmHg 92%
    14:00 0°C° 0 mm 0 mps 595 mmHg 93%
    15:00 +1°C° 0 mm 1 mps 595 mmHg 94%
    16:00 +1°C° 0 mm 1 mps 595 mmHg 95%
    17:00 -1°C° 0 mm 1 mps 594 mmHg 90%
    18:00 -3°C° 0 mm 1 mps 593 mmHg 85%
    19:00 -6°C° 0 mm 1 mps 592 mmHg 79%
    20:00 -6°C° 0 mm 1 mps 592 mmHg 77%
    21:00 -7°C° 0 mm 1 mps 592 mmHg 74%
    22:00 -7°C° 0 mm 1 mps 592 mmHg 71%
    23:00 -8°C° 0 mm 1 mps 591 mmHg 70%

    27 February, Monday

    Time Temperature Precipitation Wind Pressure Humidity
    00:00 -9°C° 0 mm 1 mps 590 mmHg 69%
    01:00 -10°C° 0 mm 0 mps 590 mmHg 68%
    02:00 -10°C° 0 mm 1 mps 590 mmHg 70%
    03:00 -9°C° 0 mm 1 mps 590 mmHg 72%
    04:00 -8°C° 0 mm 1 mps 590 mmHg 74%
    05:00 -8°C° 0 mm 1 mps 590 mmHg 77%
    06:00 -8°C° 0 mm 2 mps 591 mmHg 80%
    07:00 -8°C° 0 mm 2 mps 591 mmHg 83%
    08:00 -6°C° 0 mm 2 mps 592 mmHg 85%
    09:00 -4°C° 0 mm 2 mps 592 mmHg 87%
    10:00 -2°C° 0 mm 2 mps 593 mmHg 89%
    11:00 -2°C° 0 mm 2 mps 593 mmHg 90%
    12:00 -1°C° 0 mm 2 mps 592 mmHg 90%
    13:00 -1°C° 0 mm 2 mps 592 mmHg 90%
    14:00 -1°C° 0 mm 2 mps 592 mmHg 91%
    15:00 -1°C° 0 mm 2 mps 591 mmHg 93%
    16:00 -2°C° 0 mm 2 mps 591 mmHg 94%
    17:00 -3°C° 0 mm 2 mps 590 mmHg 94%
    18:00 -4°C° 0 mm 2 mps 590 mmHg 95%
    19:00 -5°C° 0 mm 2 mps 589 mmHg 95%
    20:00 -5°C° 0 mm 2 mps 589 mmHg 95%
    21:00 -5°C° 0 mm 2 mps 589 mmHg 95%
    22:00 -6°C° 0 mm 2 mps 589 mmHg 94%
    23:00 -7°C° 0 mm 3 mps 588 mmHg 94%

    28 February, Tuesday

    Time Temperature Precipitation Wind Pressure Humidity
    00:00 -7°C° 0 mm 3 mps 588 mmHg 94%
    01:00 -8°C° 0 mm 3 mps 588 mmHg 94%
    02:00 -8°C° 0 mm 3 mps 587 mmHg 94%
    03:00 -8°C° 0 mm 3 mps 587 mmHg 94%
    04:00 -8°C° 0 mm 3 mps 587 mmHg 94%
    05:00 -8°C° 0 mm 3 mps 586 mmHg 94%
    06:00 -7°C° 0 mm 2 mps 586 mmHg 94%
    07:00 -7°C° 0 mm 2 mps 586 mmHg 94%
    08:00 -7°C° 0.1 mm 3 mps 586 mmHg 94%
    09:00 -6°C° 0.1 mm 3 mps 587 mmHg 93%
    10:00 -4°C° 0.1 mm 3 mps 587 mmHg 93%
    11:00 -4°C° 0.2 mm 3 mps 586 mmHg 93%
    12:00 -2°C° 0.2 mm 3 mps 586 mmHg 93%
    13:00 -2°C° 0.2 mm 3 mps 586 mmHg 93%
    14:00 -2°C° 1 mm 3 mps 585 mmHg 94%
    15:00 -4°C° 1 mm 3 mps 585 mmHg 96%
    16:00 -4°C° 1 mm 3 mps 585 mmHg 98%
    17:00 -4°C° 2.5 mm 2 mps 585 mmHg 98%
    18:00 -5°C° 2.5 mm 2 mps 585 mmHg 98%
    19:00 -6°C° 2.5 mm 2 mps 585 mmHg 98%
    20:00 -6°C° 2 mm 2 mps 584 mmHg 97%
    21:00 -8°C° 2 mm 3 mps 584 mmHg 97%
    22:00 -9°C° 2 mm 3 mps 584 mmHg 97%
    23:00 -8°C° 1.4 mm 2 mps 583 mmHg 97%
    Show more